ECHOSTAR 15

导读 | 豆包AI

ECHOSTAR 15是美国EchoStar通信公司的商用通信卫星,由SS/Loral公司建造,基于1300型卫星平台研制,设计在轨寿命15年,于2010年7月10日发射升空。该卫星运行在地球静止轨道,服务DISH Network的直播到户(DTH)电视业务,助力拓展美国高清电视市场,强化付费电视领域的竞争优势,为用户提供稳定高质量的卫星电视服务。

基本信息
目录编号:
36792
目录名称:
ECHOSTAR 15
国际标识:
2010-034A
轨道中心:
EARTH
卫星名称:
ECHOSTAR 15
卫星全名:
--
卫星状态:
在轨 (已飞行5726 天)
发射日期:
2010-07-10 UTC
国别 :
美国 (US)
星等 :
--
轨道信息
数据来源 国际轨道数据 AOE轨道数据
星历时间 2026-03-13T21:07:04+0800
12小时前
查看轨道信息
2026-03-13T18:00:00+0800
15小时前
查看轨道信息
半长轴 42164.448km 42164.392km
偏心率 0.0001954 0.000198
轨道倾角 0.028° 0.030°
近地点辐角 95.396° 94.991°
升交点赤经 262.394° 262.127°
平近点角 251.332° 205.109°
近地点 35778.072km 35777.906km
远地点 35794.55km 35794.604km
周期 1436.082分钟 1436.080分钟
每日圈数 1.002728 1.00273
详细信息
使用方式:
暂无
2D轨道图
3D轨道图
轨道高度分析图
轨道倾角分析图
轨道综合分析图
查看轨道综合分析图